This demonstration page uses our WeatherBlox Daily Observations layout. Learn more.

Left ArrowRight Arrow

39.12711, -84.51439

Hourly Observations for December 19, 2018

Temp ( °F °C ) Dew Point ( °F °C ) Humidity (%) Winds ( mph kmh ) Pressure ( in mb ) Visibility ( mi km ) Precip ( " mm )
12:46 am 00:46 Clear with Mist and Fog 27 -2.8 26 -3.3 96 96 Calm 30.15 1021 2 3 0.00 0.00
12:53 am 00:53 Clear with Mist and Fog 28 -2.2 26 -3.3 92 92 Calm 30.14 1021 2 3 0.00 0.00
1:07 am 01:07 Clear with Mist and Fog 26 -3.3 24 -4.4 92 92 Calm 30.15 1021 1 1 0.00 0.00
1:15 am 01:15 Mostly Cloudy with Freezing Fog 27 -2.8 25 -3.9 92 92 Calm 30.15 1021 1 1 0.00 0.00
1:20 am 01:20 Clear with Mist and Fog 28 -2.2 27 -2.8 96 96 Calm 30.15 1021 1 2 0.00 0.00
1:29 am 01:29 Clear with Mist and Fog 28 -2.2 26 -3.3 92 92 Calm 30.15 1021 3 4 0.00 0.00
1:36 am 01:36 Clear with Mist and Fog 28 -2.2 26 -3.3 92 92 Calm 30.15 1021 3 5 0.00 0.00
1:40 am 01:40 Clear with Mist and Fog 27 -2.8 25 -3.9 92 92 Calm 30.15 1021 2 3 0.00 0.00
1:48 am 01:48 Clear with Mist and Fog 27 -3 25 -4 93 93 Calm 30.15 1021 1 1 0.00 0.00
1:53 am 01:53 Clear with Mist and Fog 28 -2.2 26 -3.3 92 92 Calm 30.12 1020 2 2 0.00 0.00
2:09 am 02:09 Clear with Freezing Fog 26 -3.3 25 -3.9 96 96 Calm 30.15 1021 1 1 0.00 0.00
2:28 am 02:28 Clear with Mist and Fog 27 -2.8 26 -3.3 96 96 Calm 30.15 1021 2 3 0.00 0.00
2:38 am 02:38 Clear with Mist and Fog 28 -2.2 27 -2.8 96 96 Calm 30.15 1021 3 5 0.00 0.00
2:45 am 02:45 Clear with Mist and Fog 27 -2.8 25 -3.9 92 92 Calm 30.15 1021 2 3 0.00 0.00
2:53 am 02:53 Clear with Mist and Fog 25 -3.9 24 -4.4 96 96 Calm 30.12 1020 1 2 0.00 0.00
3:01 am 03:01 Clear with Mist and Fog 26 -3.3 25 -3.9 96 96 Calm 30.15 1021 1 1 0.00 0.00
3:14 am 03:14 Clear with Mist and Fog 28 -2.2 26 -3.3 92 92 Calm 30.15 1021 2 3 0.00 0.00
3:22 am 03:22 Clear with Mist and Fog 27 -2.8 26 -3.3 96 96 Calm 30.12 1020 4 6 0.00 0.00
3:30 am 03:30 Clear with Mist and Fog 26 -3.3 24 -4.4 92 92 Calm 30.12 1020 2 3 0.00 0.00
3:39 am 03:39 Clear with Freezing Fog 26 -3.3 25 -3.9 96 96 Calm 30.12 1020 0 0 0.00 0.00
3:53 am 03:53 Clear with Freezing Fog 27 -2.8 26 -3.3 96 96 Calm 30.10 1019 1 1 0.00 0.00
3:57 am 03:57 Clear with Mist and Fog 27 -2.8 26 -3.3 96 96 Calm 30.12 1020 2 3 0.00 0.00
4:05 am 04:05 Clear with Mist and Fog 27 -2.8 26 -3.3 96 96 Calm 30.12 1020 3 5 0.00 0.00
4:41 am 04:41 Clear with Mist and Fog 25 -3.9 24 -4.4 96 96 Calm 30.09 1019 2 3 0.00 0.00
4:53 am 04:53 Clear with Mist and Fog 27 -2.8 25 -3.9 92 92 Calm 30.09 1019 4 6 0.00 0.00
5:53 am 05:53 Clear 27 -2.8 26 -3.3 96 96 Calm 30.10 1019 7 11 0.00 0.00
6:53 am 06:53 Clear with Mist and Fog 26 -3.3 24 -4.4 92 92 NE 3 6 30.10 1019 6 10 0.00 0.00
7:53 am 07:53 Sunny 28 -2.2 26 -3.3 92 92 Calm 30.10 1019 7 11 0.00 0.00
8:24 am 08:24 Partly Cloudy with Mist and Fog 28 -2.2 26 -3.3 92 92 Calm 30.12 1020 5 8 0.00 0.00
8:53 am 08:53 Partly Cloudy with Mist and Fog 30 -1.1 28 -2.2 92 92 Calm 30.09 1019 6 10 0.00 0.00
9:53 am 09:53 Sunny with Mist and Fog 33 0.6 31 -0.6 92 92 Calm 30.10 1019 5 8 0.00 0.00
10:53 am 10:53 Sunny 39 3.9 34 1.1 82 82 Calm 30.08 1019 8 13 0.00 0.00
11:53 am 11:53 Sunny 43 6.1 32 0 65 65 WSW 5 7 30.03 1017 10 16 0.00 0.00
12:53 pm 12:53 Sunny 48 8.9 33 0.6 56 56 SSW 7 11 30.00 1016 10 16 0.00 0.00
1:53 pm 13:53 Sunny 51 10.6 32 0 48 48 S 7 11 29.97 1015 10 16 0.00 0.00
2:53 pm 14:53 Sunny 53 11.7 32 0 45 45 SSW 5 7 29.95 1014 10 16 0.00 0.00
3:53 pm 15:53 Sunny 52 11.1 32 0 47 47 SSE 6 9 29.94 1014 10 16 0.00 0.00
4:53 pm 16:53 Sunny 51 10.6 31 -0.6 46 46 SSE 5 7 29.95 1014 10 16 0.00 0.00
5:53 pm 17:53 Clear 44 6.7 32 0 63 63 Calm 29.95 1014 10 16 0.00 0.00
6:53 pm 18:53 Clear 38 3.3 33 0.6 83 83 Calm 29.93 1014 10 16 0.00 0.00
7:53 pm 19:53 Clear 39 3.9 33 0.6 79 79 Calm 29.93 1014 10 16 0.00 0.00
8:53 pm 20:53 Clear 37 2.8 33 0.6 86 86 Calm 29.93 1014 10 16 0.00 0.00
9:53 pm 21:53 Clear 37 2.8 32 0 82 82 Calm 29.92 1013 10 16 0.00 0.00
10:53 pm 22:53 Clear 37 2.8 33 0.6 86 86 Calm 29.92 1013 10 16 0.00 0.00
11:53 pm 23:53 Clear 37 2.8 33 0.6 86 86 W 3 6 29.89 1012 10 16 0.00 0.00

Powered by AerisWeather